Anniston, AL

12:41 AM CST on November 13, 2019 (GMT -0600)
Anniston Metro

Weather History for KANB - September, 2019

Change the Weather History Date:

Sunday, September 29, 2019

  Actual Average Record
Temperature  
Mean Temperature 84 °F 69 °F  
Max Temperature 96 °F 80 °F 96 °F (2019)
Min Temperature 72 °F 58 °F 39 °F (1967)
Degree Days  
Heating Degree Days 0    
Month to date heating degree days 0  
Since 1 July heating degree days 0  
Cooling Degree Days 20    
Growing Degree Days 34 (Base 50)    
Moisture  
Dew Point 68 °F    
Average Humidity 62    
Maximum Humidity 87    
Minimum Humidity 36    
Precipitation  
Precipitation 0.00 in 0.11 in 1.06 in (1964)
Month to date precipitation 0.56 2.83  
Year to date precipitation 39.73 37.75  
Sea Level Pressure  
Sea Level Pressure 30.13 in    
Wind  
Wind Speed 5 mph (ENE)    
Max Wind Speed 14 mph    
Max Gust Speed 17 mph    
Visibility 10 miles    
Events      
T = Trace of Precipitation, MM = Missing Value Source: NWS Daily Summary

Daily Weather History Graph

Daily Weather History Graph

Search for Another Location

Airport or City:

Astronomy

Sep. 29, 2019 Rise Set
Actual Time 6:36 AM CDT 6:30 PM CDT
Civil Twilight 6:11 AM CDT 6:55 PM CDT
Nautical Twilight 5:42 AM CDT 7:24 PM CDT
Astronomical Twilight 5:13 AM CDT 7:53 PM CDT
Moon 7:26 AM CDT (9/29) 7:32 PM CDT (9/29)
Length of Visible Light 12h 44m
Length of Day
11h 54m
New Moon, 1% of the Moon is Illuminated
Sep 29
New Moon
Oct 5
First Quarter
Oct 13
Full
Oct 21
Last Quarter
Oct 27
New

Hourly Weather History & Observations

Time (CDT) Temp. Heat Index Dew Point Humidity Pressure Visibility Wind Dir Wind Speed Gust Speed Precip Events Conditions
12:53 AM 75.9 °F - 70.0 °F 82% 30.11 in 10.0 mi NE 5.8 mph - N/A   Clear
1:53 AM 75.9 °F - 69.1 °F 79% 30.11 in 10.0 mi NE 6.9 mph - N/A   Clear
2:53 AM 75.0 °F - 69.1 °F 82% 30.11 in 10.0 mi NE 5.8 mph - N/A   Clear
3:53 AM 73.9 °F - 69.1 °F 85% 30.12 in 10.0 mi East 4.6 mph - N/A   Clear
4:53 AM 73.0 °F - 69.1 °F 87% 30.12 in 10.0 mi ENE 5.8 mph - N/A   Clear
5:53 AM 73.0 °F - 68.0 °F 84% 30.15 in 10.0 mi NE 5.8 mph - N/A   Clear
6:53 AM 73.0 °F - 68.0 °F 84% 30.17 in 10.0 mi NE 6.9 mph - N/A   Clear
7:53 AM 75.9 °F - 69.1 °F 79% 30.18 in 10.0 mi NE 5.8 mph - N/A   Clear
8:53 AM 79.0 °F - 69.1 °F 72% 30.20 in 10.0 mi ENE 6.9 mph - N/A   Clear
9:53 AM 84.0 °F 89.0 °F 71.1 °F 65% 30.19 in 10.0 mi NE 4.6 mph - N/A   Clear
10:53 AM 88.0 °F 92.9 °F 70.0 °F 55% 30.17 in 10.0 mi Variable 3.5 mph - N/A   Clear
11:53 AM 91.9 °F 95.9 °F 68.0 °F 45% 30.15 in 10.0 mi East 8.1 mph - N/A   Mostly Cloudy
12:53 PM 93.0 °F 97.4 °F 68.0 °F 44% 30.14 in 10.0 mi ESE 9.2 mph - N/A   Scattered Clouds
1:53 PM 91.9 °F 93.3 °F 64.0 °F 39% 30.11 in 10.0 mi SSE 9.2 mph - N/A   Partly Cloudy
2:53 PM 95.0 °F 97.0 °F 64.0 °F 36% 30.09 in 10.0 mi South 6.9 mph - N/A   Partly Cloudy
3:53 PM 96.1 °F 99.3 °F 66.0 °F 37% 30.08 in 10.0 mi ENE 8.1 mph - N/A   Scattered Clouds
4:53 PM 93.0 °F 94.6 °F 64.0 °F 38% 30.08 in 10.0 mi East 4.6 mph - N/A   Clear
5:53 PM 91.0 °F 92.6 °F 64.0 °F 41% 30.09 in 10.0 mi ESE 3.5 mph - N/A   Clear
6:53 PM 84.0 °F 86.3 °F 66.0 °F 55% 30.10 in 10.0 mi Calm Calm - N/A   Clear
7:53 PM 81.0 °F 83.8 °F 68.0 °F 65% 30.11 in 10.0 mi Calm Calm - N/A   Clear
8:53 PM 79.0 °F - 66.9 °F 66% 30.13 in 10.0 mi Calm Calm - N/A   Clear
10:53 PM 73.9 °F - 68.0 °F 82% 30.14 in 10.0 mi Calm Calm - N/A   Clear
11:53 PM 73.0 °F - 68.0 °F 84% 30.14 in 10.0 mi Calm Calm - N/A   Clear